FW9285 Weather Reports


Display with metric or nautical units.
time (UTC)temp
F
wind
direction
speed
MPH
gust
MPH
rain 1hr
in
rain 24hr
in
rain mn
in
humidity
%
barometer
mb
20260510214603 105 239 3.0 11.0 0.00 0.00 0.00 13 1009.3
20260510211608 104 145 2.0 10.0 0.00 0.00 0.00 13 1009.6
20260510205601 103 339 2.0 13.0 0.00 0.00 0.00 13 1010.1
20260510203603 103 282 2.0 9.0 0.00 0.00 0.00 13 1010.3
20260510202602 102 340 3.0 7.0 0.00 0.00 0.00 13 1010.5
20260510201604 102 33 2.0 12.0 0.00 0.00 0.00 14 1010.5
20260510200602 101 12 0.0 8.0 0.00 0.00 0.00 14 1010.3
20260510195602 101 206 4.0 11.0 0.00 0.00 0.00 13 1010.7
20260510194603 101 286 2.0 8.0 0.00 0.00 0.00 14 1010.9
20260510193603 100 181 1.0 8.0 0.00 0.00 0.00 14 1010.9
20260510192602 101 318 2.0 6.0 0.00 0.00 0.00 14 1011.0
20260510191602 101 126 4.0 5.0 0.00 0.00 0.00 14 1011.2
20260510185602 99 215 6.0 6.0 0.00 0.00 0.00 14 1011.5
20260510184603 99 339 3.0 6.0 0.00 0.00 0.00 15 1011.3
20260510183602 100 159 0.0 5.0 0.00 0.00 0.00 14 1011.5
20260510182602 99 147 2.0 4.0 0.00 0.00 0.00 14 1011.3
20260510181604 99 235 2.0 4.0 0.00 0.00 0.00 14 1011.6
20260510180556 97 335 2.0 6.0 0.00 0.00 0.00 14 1011.7
20260510175556 98 246 0.0 8.0 0.00 0.00 0.00 15 1011.5
20260510174555 97 223 6.0 9.0 0.00 0.00 0.00 15 1011.7
20260510172557 96 168 2.0 6.0 0.00 0.00 0.00 17 1011.8
20260510171556 96 227 2.0 5.0 0.00 0.00 0.00 16 1011.7
20260510170556 95 247 2.0 6.0 0.00 0.00 0.00 16 1011.7
20260510165554 93 256 4.0 5.0 0.00 0.00 0.00 16 1011.7
20260510164555 94 207 2.0 6.0 0.00 0.00 0.00 17 1011.5
20260510163554 93 211 3.0 5.0 0.00 0.00 0.00 17 1011.7
20260510160550 91 242 4.0 6.0 0.00 0.00 0.00 18 1011.6
20260510155552 90 218 4.0 6.0 0.00 0.00 0.00 17 1011.3
20260510154551 90 140 2.0 4.0 0.00 0.00 0.00 18 1011.5
20260510153552 89 223 1.0 4.0 0.00 0.00 0.00 17 1011.0
20260510152550 88 178 1.0 3.0 0.00 0.00 0.00 18 1011.1
20260510151550 88 266 2.0 3.0 0.00 0.00 0.00 17 1011.2
20260510150551 86 194 0.0 3.0 0.00 0.00 0.00 18 1011.3
20260510145549 85 179 1.0 4.0 0.00 0.00 0.00 18 1011.3
20260510144557 83 242 0.0 2.0 0.00 0.00 0.00 19 1011.3
20260510143552 81 266 0.0 2.0 0.00 0.00 0.00 21 1011.0
20260510142551 80 176 1.0 4.0 0.00 0.00 0.00 21 1010.9
20260510141553 79 177 2.0 2.0 0.00 0.00 0.00 22 1010.9
20260510140550 77 181 1.0 3.0 0.00 0.00 0.00 23 1010.9
20260510135551 76 189 0.0 2.0 0.00 0.00 0.00 23 1010.8
20260510134549 74 260 0.0 2.0 0.00 0.00 0.00 24 1010.7
20260510133552 74 260 0.0 2.0 0.00 0.00 0.00 25 1010.9
20260510132551 73 255 1.0 2.0 0.00 0.00 0.00 24 1010.7
20260510131551 71 244 1.0 2.0 0.00 0.00 0.00 25 1010.6
20260510130552 70 248 1.0 2.0 0.00 0.00 0.00 25 1010.6
20260510125551 69 10 0.0 2.0 0.00 0.00 0.00 26 1010.4
20260510124551 70 206 2.0 2.0 0.00 0.00 0.00 24 1010.2
20260510123551 70 203 0.0 4.0 0.00 0.00 0.00 24 1010.2
20260510122551 68 231 1.0 3.0 0.00 0.00 0.00 26 1010.1
20260510121550 68 235 2.0 3.0 0.00 0.00 0.00 27 1010.3
20260510120555 67 301 2.0 2.0 0.00 0.00 0.00 31 1010.2
20260510115550 67 282 2.0 2.0 0.00 0.00 0.00 29 1010.1
20260510113551 68 239 2.0 2.0 0.00 0.00 0.00 28 1010.0
20260510111551 69 297 2.0 2.0 0.00 0.00 0.00 27 1009.9
20260510110550 70 300 2.0 2.0 0.00 0.00 0.00 28 1009.7
20260510105550 72 239 1.0 2.0 0.00 0.00 0.00 23 1009.8
20260510104553 72 213 2.0 2.0 0.00 0.00 0.00 22 1009.4
20260510102550 71 212 1.0 2.0 0.00 0.00 0.00 24 1009.6
20260510101550 70 247 1.0 1.0 0.00 0.00 0.00 26 1009.5
20260510100552 71 269 1.0 1.0 0.00 0.00 0.00 24 1009.4
20260510095552 71 234 0.0 2.0 0.00 0.00 0.00 24 1009.4
20260510094551 72 228 1.0 2.0 0.00 0.00 0.00 23 1009.5
20260510093551 72 265 2.0 2.0 0.00 0.00 0.00 25 1009.3
20260510092551 73 240 0.0 2.0 0.00 0.00 0.00 23 1009.0
20260510091551 73 213 1.0 2.0 0.00 0.00 0.00 23 1009.3
20260510090550 74 196 1.0 2.0 0.00 0.00 0.00 23 1009.2
20260510085550 73 239 2.0 2.0 0.00 0.00 0.00 23 1009.3
20260510084550 73 233 0.0 2.0 0.00 0.00 0.00 23 1009.2
20260510083551 73 269 0.0 2.0 0.00 0.00 0.00 23 1009.3
20260510081550 74 218 1.0 2.0 0.00 0.00 0.00 23 1009.0
20260510074551 76 237 1.0 2.0 0.00 0.00 0.00 22 1009.2
20260510073548 76 218 1.0 2.0 0.00 0.00 0.00 23 1009.2
20260510071550 78 205 1.0 3.0 0.00 0.00 0.00 22 1008.9
20260510065549 78 241 0.0 2.0 0.00 0.00 0.00 22 1008.7
20260510063550 79 200 0.0 2.0 0.00 0.00 0.00 22 1008.5
20260510062549 80 203 1.0 3.0 0.00 0.00 0.00 21 1008.6
20260510060550 80 180 2.0 2.0 0.00 0.00 0.00 21 1008.3
20260510055549 80 227 1.0 2.0 0.00 0.00 0.00 21 1008.2
20260510054549 80 183 1.0 2.0 0.00 0.00 0.00 21 1008.3
20260510052547 80 269 1.0 2.0 0.00 0.00 0.00 24 1008.0
20260510051549 81 304 1.0 1.0 0.00 0.00 0.00 24 1007.9
20260510045546 82 278 1.0 2.0 0.00 0.00 0.00 22 1007.7
20260510044544 83 292 1.0 2.0 0.00 0.00 0.00 23 1007.7
20260510043543 84 295 1.0 2.0 0.00 0.00 0.00 22 1007.5
20260510042542 85 289 2.0 3.0 0.00 0.00 0.00 20 1007.6
20260510041545 87 286 1.0 2.0 0.00 0.00 0.00 18 1007.5
20260510040542 88 266 1.0 4.0 0.00 0.00 0.00 18 1007.3
20260510034542 87 234 2.0 2.0 0.00 0.00 0.00 19 1007.1
20260510033542 88 269 0.0 2.0 0.00 0.00 0.00 20 1007.0
20260510024542 93 343 1.0 5.0 0.00 0.00 0.00 16 1006.3
20260510023542 94 260 2.0 5.0 0.00 0.00 0.00 16 1006.3
20260510022543 95 198 0.0 6.0 0.00 0.00 0.00 15 1006.3
20260510021542 96 255 4.0 6.0 0.00 0.00 0.00 15 1006.1
20260510020541 96 226 2.0 6.0 0.00 0.00 0.00 15 1006.3
20260510015543 97 237 3.0 10.0 0.00 0.00 0.00 15 1006.1
20260510014540 97 226 3.0 10.0 0.00 0.00 0.00 15 1005.8
20260510013542 98 285 3.0 8.0 0.00 0.00 0.00 15 1006.0
20260510012539 98 344 2.0 9.0 0.00 0.00 0.00 15 1006.1
20260510011541 100 287 1.0 6.0 0.00 0.00 0.00 14 1005.9
20260510010539 101 3 1.0 10.0 0.00 0.00 0.00 14 1006.1
20260510005539 101 342 4.0 11.0 0.00 0.00 0.00 14 1006.1
20260510004538 101 203 2.0 11.0 0.00 0.00 0.00 14 1006.0
20260510003537 102 258 1.0 11.0 0.00 0.00 0.00 13 1005.9
20260510002536 102 263 3.0 10.0 0.00 0.00 0.00 13 1006.0
20260510001537 103 267 3.0 11.0 0.00 0.00 0.00 13 1006.1
20260510000535 103 220 0.0 11.0 0.00 0.00 0.00 14 1006.3
20260509234540 103 53 2.0 12.0 0.00 0.00 0.00 14 1006.2
20260509233535 104 314 3.0 11.0 0.00 0.00 0.00 13 1006.2
20260509232530 103 219 3.0 10.0 0.00 0.00 0.00 14 1006.4
20260509231532 103 274 2.0 9.0 0.00 0.00 0.00 13 1007.0
20260509230530 103 228 3.0 13.0 0.00 0.00 0.00 14 1006.6
20260509225530 104 238 3.0 9.0 0.00 0.00 0.00 14 1006.9
20260509223532 104 230 2.0 9.0 0.00 0.00 0.00 14 1007.0
20260509222530 102 62 0.0 6.0 0.00 0.00 0.00 14 1007.3
20260509221530 104 329 2.0 11.0 0.00 0.00 0.00 14 1007.0
20260509220531 103 258 6.0 12.0 0.00 0.00 0.00 14 1007.2
20260509215529 101 325 2.0 13.0 0.00 0.00 0.00 14 1007.5